This is the latest recevied weather packets stored in our database for station/object KI7CSN-13. If no packets are shown the sender has not sent any weather packets the latest 10 day(s).
| Time | Temp. | Humidity | Pressure | Rain* | Wind** | Luminosity | Snow |
|---|---|---|---|---|---|---|---|
| 1778069858 | 7.78° C | 62% | 983.1 hPa | 0 mm | - | - | - |
| 1778069558 | 7.78° C | 64% | 983.1 hPa | 0 mm | - | - | - |
| 1778069258 | 7.78° C | 64% | 983.2 hPa | 0 mm | - | - | - |
| 1778068958 | 7.78° C | 63% | 983.1 hPa | 0 mm | - | - | - |
| 1778068658 | 7.22° C | 63% | 983.1 hPa | 0 mm | - | - | - |
| 1778068358 | 7.78° C | 63% | 983.1 hPa | 0 mm | - | - | - |
| 1778068058 | 7.22° C | 65% | 983.1 hPa | 0 mm | - | - | - |
| 1778067758 | 6.67° C | 66% | 983.1 hPa | 0 mm | - | - | - |
| 1778067458 | 7.22° C | 64% | 983 hPa | 0 mm | - | - | - |
| 1778067158 | 7.22° C | 63% | 983.1 hPa | 0 mm | - | - | - |
| 1778066859 | 6.67° C | 58% | 983 hPa | 0 mm | - | - | - |
| 1778066558 | 8.33° C | 61% | 983 hPa | 0 mm | - | - | - |
| 1778066258 | 8.33° C | 62% | 983 hPa | 0 mm | - | - | - |
| 1778065958 | 7.78° C | 65% | 983 hPa | 0 mm | - | - | - |
| 1778065659 | 7.22° C | 65% | 982.9 hPa | 0 mm | - | - | - |
| 1778065358 | 7.22° C | 65% | 982.8 hPa | 0 mm | - | - | - |
| 1778065058 | 7.78° C | 65% | 982.8 hPa | 0 mm | - | - | - |
| 1778064759 | 6.67° C | 64% | 982.8 hPa | 0 mm | - | - | - |
| 1778064458 | 7.22° C | 61% | 982.8 hPa | 0 mm | - | - | - |
| 1778064158 | 7.22° C | 63% | 982.8 hPa | 0 mm | - | - | - |
| 1778063858 | 6.67° C | 65% | 982.6 hPa | 0 mm | - | - | - |
| 1778063559 | 7.22° C | 64% | 982.6 hPa | 0 mm | - | - | - |
| 1778063258 | 6.67° C | 58% | 982.6 hPa | 0 mm | - | - | - |
| 1778062958 | 7.78° C | 54% | 982.6 hPa | 0 mm | - | - | - |
| 1778062659 | 8.33° C | 59% | 982.5 hPa | 0 mm | - | - | - |
* Rain latest hour (hover to see other rain measurements)
** Current wind speed in m/s (hover to see current wind gust speed)